DELTA 1 DEB, 3975

Orbit data source: Space-Track

DELTA 1 DEB, 3975 is space debris in SSO originally from a launch on Fri, 16 Aug 1968 UTC launched from the Air Force Western Test Range (AFWTR). Debris objects in space refer to the collection of defunct objects orbiting the Earth. Examples of debris include non-operational satellites, rocket bodies, and fragments generated from explosions, collisions, or faulty payload assembly.

Loading next visibility...
Identifier
3975, 1968-069F
Orbit
SSO
Country
Flag of USUS
Related business
Manufacturer
Unknown
Mission
Spacecraft
Bus & Motor
Unknown
Mass
Unknown
Launch date (UTC)
1968-08-16 (57 years ago)
Launch vehicle
Unknown
Launch site
Air Force Western Test Range (AFWTR)
Object type
Payload
Rocket body
Debris
Shape & HBR
Unknown shape, 0.1 m
Radar Cross Section
Small (<0.1 m²)

Expand to show TLE details & history
Last TLE update: 6 days ago

TLE from 6 days ago
0 DELTA 1 DEB
1 03975U 68069F   25298.13158161 -.00000006  00000-0  23968-3 0  9993
2 03975 101.5674 357.4846 0042723 262.3621 155.9819 12.53544397618553
Epoch: 2025-10-25T03:09Z
TLE epoch observation values (Epoch: 2025-10-25T03:09:28.651Z)
Latitude
56.78208°
Longitude
-101.77307°
Altitude
1,489.593 km
Speed
7.11 km/s
True Right ascension
22h 37m 27s
True Declination
56° 38' 20"
Sunlit
Object was in daylight at epoch
Visualization orbit readout
Latitude
Unknown
Longitude
Unknown
Altitude
Unknown
Speed
Unknown
Apparent Right ascension
Unknown
Apparent Declination
Unknown
Sunlit
N/A
Visualization observer readout
Local Sidereal Time
04:59:51
Azimuth
Unknown
Elevation
Unknown
Doppler factor
Unknown
Orbital elements
Apogee altitude
1,480.668 km
Perigee altitude
1,413.804 km
Semi-major axis
7,825.373 km
Eccentricity
0.00427
Inclination
101.5674°
RAAN
357.4846°
Arg. of periapsis
262.3621°
True anomaly
156.1802°
Mean anomaly
155.9819°
Eccentric anomaly
156.08115°
Mean motion
3.13535 °/min
Orbital period
114.82 mins
BSTAR
0.00023968
Loading maneuver chart data...
Computing Atmospheric mass density...
Loading historical data...
Loading historical data...
Loading historical data...
Loading historical data...
Loading historical data...
Loading historical data...
Loading historical data...

Documentation

Showing up to 5 results
|